Погода в Киото

Япония     35°07′06″N   135°42′20″E
темп.,
°C
ветер,
м/с
пор.,
м/с
влажн.,
%
обл.,
%
осадки,
мм/ч
давл.,
гПа
погр.,
м
19 апреля, пн
пн1900:00+6зсз25745 0.0 1015264
03:00+5сз23783 0.0 1015124
06:00+5зсз12785 0.0 101683
09:00+12з365218 0.0 10161678
12:00+16зсз36364 0.0 10141952
15:00+18зсз36325 0.0 10132210
18:00+15юз13485 0.0 1015392
21:00+12сз11610 0.0 101739
20 апреля, вт
вт2000:00+10зсз11670 0.0 101815
03:00+9сз11740 0.0 101811
06:00+9зюз11770 0.0 101919
09:00+15ююз22530 0.0 1020576
12:00+21зюз25320 0.0 10191652
15:00+21ссз66330 0.0 10181415
18:00+17ссз365815 0.0 1020532
21:00+13ссз237559 0.0 1022126
21 апреля, ср
ср2100:00+11ссз23815 0.0 1023116
03:00+10ссз227942 0.0 102368
06:00+9ссз12740 0.0 102466
09:00+17сз12340 0.0 1024553
12:00+23сз13170 0.0 10221565
15:00+23ссз45180 0.0 10211708
18:00+18ссз353023 0.0 1021296
21:00+14ссз233455 0.0 102280
22 апреля, чт
чт2200:00+12ссз223610 0.0 102345
03:00+11ссз22376 0.0 102227
06:00+11с22416 0.0 102237
09:00+18ссз1330100 0.0 1022459
12:00+23ссв241987 0.0 10201434
15:00+24с341819 0.0 10171650
18:00+19ссз34365 0.0 1017292
21:00+14ссз234864 0.0 1019103
23 апреля, пт
пт2300:00+12сз225296 0.0 101980
03:00+13св125499 0.0 101945
06:00+13всв3873100 0.0 1021578
09:00+15в5771100 0.0 1021878
12:00+16в4563100 0.0 1021981
15:00+18всв2254100 0.0 10191085
18:00+17св2361100 0.0 1019180
21:00+15всв1172100 0.0 102048